Time,TemperatureF,DewpointF,PressureIn,WindDirection,WindDirectionDegrees,WindSpeedMPH,WindSpeedGustMPH,Humidity,HourlyPrecipIn,Conditions,Clouds,dailyrainin,SoftwareType,DateUTC
2013-07-10 00:00:00,76.3,74.8,29.90,WSW,252,3.0,5.0,95,0.00,,,0.62,Wunderground v.1.15,2013-07-10 04:00:00,
2013-07-10 00:05:00,76.4,74.9,29.90,SW,233,4.0,5.0,95,0.00,,,0.00,Wunderground v.1.15,2013-07-10 04:05:00,
2013-07-10 00:10:00,76.4,74.9,29.90,WSW,253,3.0,3.0,95,0.00,,,0.00,Wunderground v.1.15,2013-07-10 04:10:00,
2013-07-10 00:15:00,76.4,74.9,29.90,West,260,3.0,3.0,95,0.00,,,0.00,Wunderground v.1.15,2013-07-10 04:15:00,
2013-07-10 00:20:00,76.4,74.9,29.90,West,271,3.0,3.0,95,0.00,,,0.00,Wunderground v.1.15,2013-07-10 04:20:00,
2013-07-10 00:25:00,76.4,74.9,29.90,WSW,247,2.0,3.0,95,0.00,,,0.00,Wunderground v.1.15,2013-07-10 04:25:00,
2013-07-10 00:35:00,76.5,74.6,29.90,SW,236,3.0,3.0,94,0.00,,,0.00,Wunderground v.1.15,2013-07-10 04:35:00,
2013-07-10 00:40:00,76.5,74.6,29.90,West,277,3.0,3.0,94,0.00,,,0.00,Wunderground v.1.15,2013-07-10 04:40:00,
2013-07-10 00:45:00,76.5,74.6,29.90,WSW,249,3.0,3.0,94,0.00,,,0.00,Wunderground v.1.15,2013-07-10 04:45:00,
2013-07-10 00:50:00,76.5,74.6,29.90,WSW,249,3.0,3.0,94,0.00,,,0.00,Wunderground v.1.15,2013-07-10 04:50:00,
2013-07-10 00:55:00,76.5,74.6,29.90,West,261,3.0,3.0,94,0.00,,,0.00,Wunderground v.1.15,2013-07-10 04:55:00,
2013-07-10 01:00:00,76.5,74.6,29.89,SW,222,3.0,3.0,94,0.00,,,0.00,Wunderground v.1.15,2013-07-10 05:00:00,
2013-07-10 01:10:00,76.9,74.7,29.90,SW,229,4.0,4.0,93,0.00,,,0.00,Wunderground v.1.15,2013-07-10 05:10:00,
2013-07-10 01:15:00,77.0,74.8,29.90,West,262,4.0,7.0,93,0.00,,,0.00,Wunderground v.1.15,2013-07-10 05:15:00,
2013-07-10 01:20:00,77.0,74.8,29.89,NW,305,4.0,5.0,93,0.00,,,0.00,Wunderground v.1.15,2013-07-10 05:20:00,
2013-07-10 01:25:00,77.0,74.8,29.89,SSW,207,4.0,9.0,93,0.00,,,0.00,Wunderground v.1.15,2013-07-10 05:25:00,
2013-07-10 01:30:00,77.1,74.9,29.89,WSW,249,5.0,5.0,93,0.00,,,0.00,Wunderground v.1.15,2013-07-10 05:30:00,
2013-07-10 01:40:00,76.9,74.7,29.89,WNW,283,2.0,2.0,93,0.00,,,0.00,Wunderground v.1.15,2013-07-10 05:40:00,
2013-07-10 01:45:00,76.8,74.6,29.89,WNW,284,2.0,2.0,93,0.00,,,0.00,Wunderground v.1.15,2013-07-10 05:45:00,
2013-07-10 01:50:00,76.7,74.5,29.89,West,278,2.0,3.0,93,0.00,,,0.00,Wunderground v.1.15,2013-07-10 05:50:00,
2013-07-10 01:55:00,76.7,74.5,29.89,WNW,283,2.0,3.0,93,0.00,,,0.00,Wunderground v.1.15,2013-07-10 05:55:00,
2013-07-10 02:00:00,76.7,74.5,29.89,WSW,244,2.0,2.0,93,0.00,,,0.00,Wunderground v.1.15,2013-07-10 06:00:00,
2013-07-10 02:10:00,76.6,74.7,29.88,West,266,2.0,2.0,94,0.00,,,0.00,Wunderground v.1.15,2013-07-10 06:10:00,
2013-07-10 02:15:00,76.5,74.6,29.88,West,266,1.0,3.0,94,0.00,,,0.00,Wunderground v.1.15,2013-07-10 06:15:00,
2013-07-10 02:20:00,76.4,74.5,29.88,West,261,1.0,1.0,94,0.00,,,0.00,Wunderground v.1.15,2013-07-10 06:20:00,
2013-07-10 02:25:00,76.4,74.5,29.88,WSW,252,2.0,3.0,94,0.00,,,0.00,Wunderground v.1.15,2013-07-10 06:25:00,
2013-07-10 02:30:00,76.5,74.6,29.88,West,273,2.0,2.0,94,0.00,,,0.00,Wunderground v.1.15,2013-07-10 06:30:00,
2013-07-10 02:35:00,76.4,74.5,29.88,WSW,247,2.0,2.0,94,0.00,,,0.00,Wunderground v.1.15,2013-07-10 06:35:00,
2013-07-10 02:40:00,76.4,74.5,29.87,WNW,294,2.0,2.0,94,0.00,,,0.00,Wunderground v.1.15,2013-07-10 06:40:00,
2013-07-10 02:45:00,76.4,74.5,29.88,WNW,286,2.0,4.0,94,0.00,,,0.00,Wunderground v.1.15,2013-07-10 06:45:00,
2013-07-10 02:50:00,76.5,74.6,29.87,NW,308,3.0,3.0,94,0.00,,,0.00,Wunderground v.1.15,2013-07-10 06:50:00,
2013-07-10 02:55:00,76.6,74.7,29.87,West,262,3.0,3.0,94,0.00,,,0.00,Wunderground v.1.15,2013-07-10 06:55:00,
2013-07-10 03:00:00,76.7,74.5,29.87,WSW,245,2.0,2.0,93,0.00,,,0.00,Wunderground v.1.15,2013-07-10 07:00:00,
2013-07-10 03:10:00,76.7,74.5,29.87,West,264,2.0,2.0,93,0.00,,,0.00,Wunderground v.1.15,2013-07-10 07:10:00,
2013-07-10 03:15:00,76.8,74.6,29.87,WNW,291,2.0,2.0,93,0.00,,,0.00,Wunderground v.1.15,2013-07-10 07:15:00,
2013-07-10 03:20:00,76.9,74.7,29.87,WNW,290,2.0,2.0,93,0.00,,,0.00,Wunderground v.1.15,2013-07-10 07:20:00,
2013-07-10 03:25:00,76.9,74.7,29.87,WNW,291,2.0,2.0,93,0.00,,,0.00,Wunderground v.1.15,2013-07-10 07:25:00,
2013-07-10 03:30:00,76.9,74.7,29.87,West,271,3.0,3.0,93,0.00,,,0.00,Wunderground v.1.15,2013-07-10 07:30:00,
2013-07-10 03:35:00,76.8,74.6,29.87,WNW,284,3.0,3.0,93,0.00,,,0.00,Wunderground v.1.15,2013-07-10 07:35:00,
2013-07-10 03:40:00,76.8,74.6,29.87,West,277,2.0,2.0,93,0.00,,,0.00,Wunderground v.1.15,2013-07-10 07:40:00,
2013-07-10 03:50:00,76.6,74.4,29.87,West,272,3.0,4.0,93,0.00,,,0.00,Wunderground v.1.15,2013-07-10 07:50:00,
2013-07-10 03:55:00,76.5,74.3,29.87,WSW,252,3.0,4.0,93,0.00,,,0.00,Wunderground v.1.15,2013-07-10 07:55:00,
2013-07-10 04:00:00,76.3,74.4,29.87,West,274,2.0,2.0,94,0.00,,,0.00,Wunderground v.1.15,2013-07-10 08:00:00,
2013-07-10 04:10:00,76.0,74.1,29.86,WNW,289,2.0,2.0,94,0.00,,,0.00,Wunderground v.1.15,2013-07-10 08:10:00,
2013-07-10 04:20:00,75.8,74.3,29.86,West,264,2.0,2.0,95,0.00,,,0.00,Wunderground v.1.15,2013-07-10 08:20:00,
2013-07-10 04:25:00,75.8,74.3,29.86,SW,236,3.0,6.0,95,0.00,,,0.00,Wunderground v.1.15,2013-07-10 08:25:00,
2013-07-10 04:30:00,75.8,73.9,29.86,WSW,257,3.0,3.0,94,0.00,,,0.00,Wunderground v.1.15,2013-07-10 08:30:00,
2013-07-10 04:35:00,75.6,74.1,29.86,WSW,247,2.0,5.0,95,0.00,,,0.00,Wunderground v.1.15,2013-07-10 08:35:00,
2013-07-10 04:40:00,75.5,74.0,29.86,WSW,244,2.0,2.0,95,0.00,,,0.00,Wunderground v.1.15,2013-07-10 08:40:00,
2013-07-10 04:45:00,75.4,73.9,29.86,West,272,2.0,2.0,95,0.00,,,0.00,Wunderground v.1.15,2013-07-10 08:45:00,
2013-07-10 04:55:00,75.2,73.7,29.86,SW,226,2.0,2.0,95,0.00,,,0.00,Wunderground v.1.15,2013-07-10 08:55:00,
2013-07-10 05:00:00,75.2,73.7,29.85,WNW,286,2.0,2.0,95,0.00,,,0.00,Wunderground v.1.15,2013-07-10 09:00:00,
2013-07-10 05:10:00,75.0,73.8,29.86,SW,227,2.0,2.0,96,0.00,,,0.00,Wunderground v.1.15,2013-07-10 09:10:00,
2013-07-10 05:15:00,74.9,73.7,29.85,WSW,248,2.0,3.0,96,0.00,,,0.00,Wunderground v.1.15,2013-07-10 09:15:00,
2013-07-10 05:25:00,75.0,73.8,29.86,West,281,3.0,3.0,96,0.00,,,0.00,Wunderground v.1.15,2013-07-10 09:25:00,
2013-07-10 05:30:00,74.9,73.7,29.86,WNW,288,2.0,2.0,96,0.00,,,0.00,Wunderground v.1.15,2013-07-10 09:30:00,
2013-07-10 05:35:00,74.8,73.6,29.86,West,264,2.0,2.0,96,0.00,,,0.00,Wunderground v.1.15,2013-07-10 09:35:00,
2013-07-10 05:40:00,74.7,73.5,29.86,WSW,257,1.0,1.0,96,0.00,,,0.00,Wunderground v.1.15,2013-07-10 09:40:00,
2013-07-10 05:45:00,74.5,73.3,29.86,West,269,1.0,2.0,96,0.00,,,0.00,Wunderground v.1.15,2013-07-10 09:45:00,
2013-07-10 05:50:00,74.4,73.2,29.86,WSW,245,1.0,1.0,96,0.00,,,0.00,Wunderground v.1.15,2013-07-10 09:50:00,
2013-07-10 06:00:00,74.3,73.1,29.86,WSW,242,2.0,2.0,96,0.00,,,0.00,Wunderground v.1.15,2013-07-10 10:00:00,
2013-07-10 06:10:00,74.2,73.3,29.86,SSW,212,2.0,2.0,97,0.00,,,0.00,Wunderground v.1.15,2013-07-10 10:10:00,
2013-07-10 06:15:00,74.2,73.0,29.86,SW,229,2.0,2.0,96,0.00,,,0.00,Wunderground v.1.15,2013-07-10 10:15:00,
2013-07-10 06:20:00,74.1,73.2,29.86,WSW,249,1.0,1.0,97,0.00,,,0.00,Wunderground v.1.15,2013-07-10 10:20:00,
2013-07-10 06:25:00,74.0,73.1,29.86,SW,232,1.0,2.0,97,0.00,,,0.00,Wunderground v.1.15,2013-07-10 10:25:00,
2013-07-10 06:30:00,74.0,73.1,29.86,WSW,252,2.0,2.0,97,0.00,,,0.00,Wunderground v.1.15,2013-07-10 10:30:00,
2013-07-10 06:35:00,74.0,73.1,29.86,SW,236,2.0,3.0,97,0.00,,,0.00,Wunderground v.1.15,2013-07-10 10:35:00,
2013-07-10 06:40:00,73.9,73.0,29.86,WSW,240,2.0,3.0,97,0.00,,,0.00,Wunderground v.1.15,2013-07-10 10:40:00,
2013-07-10 06:45:00,73.8,72.9,29.86,SW,229,2.0,3.0,97,0.00,,,0.00,Wunderground v.1.15,2013-07-10 10:45:00,
2013-07-10 06:50:00,73.7,72.8,29.86,WSW,240,2.0,2.0,97,0.00,,,0.00,Wunderground v.1.15,2013-07-10 10:50:00,
2013-07-10 07:00:00,73.7,73.1,29.86,WNW,296,2.0,2.0,98,0.00,,,0.00,Wunderground v.1.15,2013-07-10 11:00:00,
2013-07-10 07:10:00,73.9,73.3,29.85,West,272,2.0,2.0,98,0.00,,,0.00,Wunderground v.1.15,2013-07-10 11:10:00,
2013-07-10 07:15:00,74.1,73.5,29.85,SW,232,3.0,3.0,98,0.00,,,0.00,Wunderground v.1.15,2013-07-10 11:15:00,
2013-07-10 07:20:00,74.4,73.5,29.85,West,264,3.0,3.0,97,0.00,,,0.00,Wunderground v.1.15,2013-07-10 11:20:00,
2013-07-10 07:25:00,74.6,73.7,29.85,WSW,246,3.0,3.0,97,0.00,,,0.00,Wunderground v.1.15,2013-07-10 11:25:00,
2013-07-10 07:35:00,75.1,73.9,29.85,West,260,3.0,4.0,96,0.00,,,0.00,Wunderground v.1.15,2013-07-10 11:35:00,
2013-07-10 07:40:00,75.4,74.2,29.85,West,278,3.0,3.0,96,0.00,,,0.00,Wunderground v.1.15,2013-07-10 11:40:00,
2013-07-10 07:45:00,75.6,74.1,29.85,WNW,295,3.0,3.0,95,0.00,,,0.00,Wunderground v.1.15,2013-07-10 11:45:00,
2013-07-10 07:50:00,75.8,74.3,29.85,WNW,293,3.0,3.0,95,0.00,,,0.00,Wunderground v.1.15,2013-07-10 11:50:00,
2013-07-10 07:55:00,75.9,74.4,29.85,WNW,297,4.0,4.0,95,0.00,,,0.00,Wunderground v.1.15,2013-07-10 11:55:00,
2013-07-10 08:00:00,76.1,74.6,29.85,WNW,295,5.0,5.0,95,0.00,,,0.00,Wunderground v.1.15,2013-07-10 12:00:00,
2013-07-10 08:10:00,76.7,74.8,29.85,WSW,245,4.0,4.0,94,0.00,,,0.00,Wunderground v.1.15,2013-07-10 12:10:00,
2013-07-10 08:15:00,76.9,74.7,29.85,West,266,4.0,4.0,93,0.00,,,0.00,Wunderground v.1.15,2013-07-10 12:15:00,
2013-07-10 08:20:00,77.0,74.8,29.85,West,273,4.0,4.0,93,0.00,,,0.00,Wunderground v.1.15,2013-07-10 12:20:00,
2013-07-10 08:25:00,77.3,75.1,29.85,WNW,293,4.0,5.0,93,0.00,,,0.00,Wunderground v.1.15,2013-07-10 12:25:00,
2013-07-10 08:30:00,77.4,74.9,29.85,West,260,4.0,4.0,92,0.00,,,0.00,Wunderground v.1.15,2013-07-10 12:30:00,
2013-07-10 08:40:00,77.6,75.1,29.86,West,270,5.0,5.0,92,0.00,,,0.00,Wunderground v.1.15,2013-07-10 12:40:00,
2013-07-10 08:45:00,77.9,75.1,29.85,West,277,4.0,5.0,91,0.00,,,0.00,Wunderground v.1.15,2013-07-10 12:45:00,
2013-07-10 08:50:00,78.3,75.8,29.85,WNW,302,4.0,4.0,92,0.00,,,0.00,Wunderground v.1.15,2013-07-10 12:50:00,
2013-07-10 08:55:00,78.5,75.3,29.85,WNW,294,5.0,6.0,90,0.00,,,0.00,Wunderground v.1.15,2013-07-10 12:55:00,
2013-07-10 09:00:00,78.5,75.3,29.85,WNW,287,6.0,6.0,90,0.00,,,0.00,Wunderground v.1.15,2013-07-10 13:00:00,
2013-07-10 09:10:00,78.8,75.6,29.85,West,279,6.0,6.0,90,0.00,,,0.00,Wunderground v.1.15,2013-07-10 13:10:00,
2013-07-10 09:15:00,78.9,75.4,29.85,WNW,299,5.0,6.0,89,0.00,,,0.00,Wunderground v.1.15,2013-07-10 13:15:00,
2013-07-10 09:20:00,79.0,75.8,29.85,WNW,296,6.0,6.0,90,0.00,,,0.00,Wunderground v.1.15,2013-07-10 13:20:00,
2013-07-10 09:25:00,79.2,76.0,29.85,West,270,5.0,6.0,90,0.00,,,0.00,Wunderground v.1.15,2013-07-10 13:25:00,
2013-07-10 09:30:00,79.3,76.1,29.85,West,276,5.0,5.0,90,0.00,,,0.00,Wunderground v.1.15,2013-07-10 13:30:00,
2013-07-10 09:35:00,79.4,75.9,29.85,WNW,293,4.0,6.0,89,0.00,,,0.00,Wunderground v.1.15,2013-07-10 13:35:00,
2013-07-10 09:45:00,79.3,76.1,29.85,WNW,295,5.0,5.0,90,0.00,,,0.00,Wunderground v.1.15,2013-07-10 13:45:00,
2013-07-10 09:50:00,79.7,76.2,29.85,WSW,250,4.0,4.0,89,0.00,,,0.00,Wunderground v.1.15,2013-07-10 13:50:00,
2013-07-10 09:55:00,80.0,76.5,29.85,SW,230,3.0,4.0,89,0.00,,,0.00,Wunderground v.1.15,2013-07-10 13:55:00,
2013-07-10 10:00:00,80.2,76.0,29.85,WNW,284,3.0,3.0,87,0.00,,,0.00,Wunderground v.1.15,2013-07-10 14:00:00,
2013-07-10 10:10:00,80.2,76.3,29.84,WSW,254,4.0,5.0,88,0.00,,,0.00,Wunderground v.1.15,2013-07-10 14:10:00,
2013-07-10 10:15:00,80.2,76.3,29.84,West,260,3.0,5.0,88,0.00,,,0.00,Wunderground v.1.15,2013-07-10 14:15:00,
2013-07-10 10:20:00,80.5,77.0,29.84,NW,311,3.0,4.0,89,0.00,,,0.00,Wunderground v.1.15,2013-07-10 14:20:00,
2013-07-10 10:25:00,81.0,77.4,29.84,WSW,250,3.0,4.0,89,0.00,,,0.00,Wunderground v.1.15,2013-07-10 14:25:00,
2013-07-10 10:30:00,81.0,76.8,29.84,West,262,4.0,5.0,87,0.00,,,0.00,Wunderground v.1.15,2013-07-10 14:30:00,
2013-07-10 10:40:00,81.2,77.0,29.84,WNW,302,4.0,7.0,87,0.00,,,0.00,Wunderground v.1.15,2013-07-10 14:40:00,
2013-07-10 10:45:00,81.0,76.4,29.84,WNW,302,4.0,7.0,86,0.00,,,0.00,Wunderground v.1.15,2013-07-10 14:45:00,
2013-07-10 10:50:00,80.9,76.3,29.84,WNW,302,4.0,4.0,86,0.00,,,0.00,Wunderground v.1.15,2013-07-10 14:50:00,
2013-07-10 10:55:00,80.8,76.2,29.84,NW,308,4.0,8.0,86,0.00,,,0.00,Wunderground v.1.15,2013-07-10 14:55:00,
2013-07-10 11:00:00,80.5,75.9,29.84,WNW,291,6.0,6.0,86,0.00,,,0.00,Wunderground v.1.15,2013-07-10 15:00:00,
2013-07-10 11:10:00,81.0,76.8,29.83,NW,304,5.0,5.0,87,0.00,,,0.00,Wunderground v.1.15,2013-07-10 15:10:00,
2013-07-10 11:15:00,81.3,76.7,29.84,WNW,290,5.0,5.0,86,0.00,,,0.00,Wunderground v.1.15,2013-07-10 15:15:00,
2013-07-10 11:20:00,82.0,76.3,29.84,West,278,5.0,5.0,83,0.00,,,0.00,Wunderground v.1.15,2013-07-10 15:20:00,
2013-07-10 11:25:00,82.1,75.3,29.84,WNW,293,5.0,9.0,80,0.00,,,0.00,Wunderground v.1.15,2013-07-10 15:25:00,
2013-07-10 11:30:00,81.7,75.3,29.84,WNW,300,7.0,7.0,81,0.00,,,0.00,Wunderground v.1.15,2013-07-10 15:30:00,
2013-07-10 11:35:00,81.4,75.7,29.84,WNW,302,7.0,7.0,83,0.00,,,0.00,Wunderground v.1.15,2013-07-10 15:35:00,
2013-07-10 11:40:00,81.4,75.0,29.84,NNW,345,7.0,10.0,81,0.00,,,0.00,Wunderground v.1.15,2013-07-10 15:40:00,
2013-07-10 11:50:00,81.3,74.9,29.83,NNW,336,5.0,5.0,81,0.00,,,0.00,Wunderground v.1.15,2013-07-10 15:50:00,
2013-07-10 11:55:00,81.7,75.7,29.84,NW,305,5.0,9.0,82,0.00,,,0.00,Wunderground v.1.15,2013-07-10 15:55:00,
2013-07-10 12:00:00,81.6,75.2,29.84,WNW,302,6.0,9.0,81,0.00,,,0.00,Wunderground v.1.15,2013-07-10 16:00:00,
2013-07-10 12:10:00,80.8,74.4,29.83,North,359,6.0,10.0,81,0.00,,,0.00,Wunderground v.1.15,2013-07-10 16:10:00,
2013-07-10 12:15:00,81.2,75.2,29.83,West,270,6.0,10.0,82,0.00,,,0.00,Wunderground v.1.15,2013-07-10 16:15:00,
2013-07-10 12:25:00,81.5,74.4,29.84,WNW,287,7.0,11.0,79,0.00,,,0.00,Wunderground v.1.15,2013-07-10 16:25:00,
2013-07-10 12:30:00,81.7,74.2,29.84,WNW,294,8.0,9.0,78,0.00,,,0.00,Wunderground v.1.15,2013-07-10 16:30:00,
2013-07-10 12:35:00,81.9,74.4,29.84,WNW,288,9.0,9.0,78,0.00,,,0.00,Wunderground v.1.15,2013-07-10 16:35:00,
2013-07-10 12:40:00,81.6,74.1,29.84,NW,324,8.0,8.0,78,0.00,,,0.00,Wunderground v.1.15,2013-07-10 16:40:00,
2013-07-10 12:45:00,81.3,73.4,29.84,NW,318,8.0,12.0,77,0.00,,,0.00,Wunderground v.1.15,2013-07-10 16:45:00,
2013-07-10 12:55:00,80.2,73.1,29.85,NW,305,10.0,10.0,79,0.00,,,0.00,Wunderground v.1.15,2013-07-10 16:55:00,
2013-07-10 13:00:00,80.1,73.4,29.85,West,281,7.0,7.0,80,0.00,,,0.00,Wunderground v.1.15,2013-07-10 17:00:00,
2013-07-10 13:10:00,79.9,72.4,29.84,NW,320,8.0,8.0,78,0.00,,,0.00,Wunderground v.1.15,2013-07-10 17:10:00,
2013-07-10 13:15:00,79.6,71.8,29.85,WNW,290,9.0,9.0,77,0.00,,,0.00,Wunderground v.1.15,2013-07-10 17:15:00,
2013-07-10 13:20:00,79.3,72.2,29.85,WNW,295,8.0,9.0,79,0.00,,,0.00,Wunderground v.1.15,2013-07-10 17:20:00,
2013-07-10 13:30:00,79.0,72.7,29.86,West,280,7.0,7.0,81,0.00,,,0.00,Wunderground v.1.15,2013-07-10 17:30:00,
2013-07-10 13:35:00,78.8,72.5,29.86,WNW,301,6.0,7.0,81,0.00,,,0.00,Wunderground v.1.15,2013-07-10 17:35:00,
2013-07-10 13:40:00,78.9,72.2,29.85,WNW,297,7.0,7.0,80,0.00,,,0.00,Wunderground v.1.15,2013-07-10 17:40:00,
2013-07-10 13:45:00,79.1,72.0,29.85,NNW,333,7.0,7.0,79,0.00,,,0.00,Wunderground v.1.15,2013-07-10 17:45:00,
2013-07-10 13:50:00,79.0,71.9,29.84,NW,315,7.0,10.0,79,0.00,,,0.00,Wunderground v.1.15,2013-07-10 17:50:00,
2013-07-10 14:00:00,79.0,71.9,29.85,WNW,298,7.0,7.0,79,0.00,,,0.00,Wunderground v.1.15,2013-07-10 18:00:00,
2013-07-10 14:10:00,78.4,70.6,29.86,NNW,330,8.0,8.0,77,0.00,,,0.00,Wunderground v.1.15,2013-07-10 18:10:00,
2013-07-10 14:15:00,78.5,71.1,29.86,NNW,328,10.0,10.0,78,0.00,,,0.00,Wunderground v.1.15,2013-07-10 18:15:00,
2013-07-10 14:20:00,78.5,70.7,29.86,NW,308,8.0,8.0,77,0.00,,,0.00,Wunderground v.1.15,2013-07-10 18:20:00,
2013-07-10 14:25:00,78.5,70.7,29.86,WNW,298,7.0,8.0,77,0.00,,,0.00,Wunderground v.1.15,2013-07-10 18:25:00,
2013-07-10 14:30:00,78.7,70.5,29.87,NNW,329,6.0,6.0,76,0.00,,,0.00,Wunderground v.1.15,2013-07-10 18:30:00,
2013-07-10 14:35:00,79.0,71.2,29.87,WNW,300,5.0,6.0,77,0.00,,,0.00,Wunderground v.1.15,2013-07-10 18:35:00,
2013-07-10 14:45:00,79.5,69.7,29.88,WNW,302,7.0,12.0,72,0.00,,,0.00,Wunderground v.1.15,2013-07-10 18:45:00,
2013-07-10 14:50:00,79.2,70.6,29.88,WNW,289,9.0,15.0,75,0.00,,,0.00,Wunderground v.1.15,2013-07-10 18:50:00,
2013-07-10 14:55:00,79.2,69.4,29.88,NNW,338,9.0,15.0,72,0.00,,,0.00,Wunderground v.1.15,2013-07-10 18:55:00,
2013-07-10 15:00:00,78.6,69.2,29.89,North,359,8.0,8.0,73,0.00,,,0.00,Wunderground v.1.15,2013-07-10 19:00:00,
2013-07-10 15:10:00,78.6,67.6,29.91,NE,46,7.0,7.0,69,0.00,,,0.00,Wunderground v.1.15,2013-07-10 19:10:00,
2013-07-10 15:15:00,78.5,66.2,29.91,NNW,347,8.0,8.0,66,0.00,,,0.00,Wunderground v.1.15,2013-07-10 19:15:00,
2013-07-10 15:20:00,78.1,64.9,29.91,WNW,293,8.0,13.0,64,0.00,,,0.00,Wunderground v.1.15,2013-07-10 19:20:00,
2013-07-10 15:25:00,78.0,63.5,29.91,West,278,10.0,13.0,61,0.00,,,0.00,Wunderground v.1.15,2013-07-10 19:25:00,
2013-07-10 15:35:00,77.7,64.5,29.92,NW,319,9.0,11.0,64,0.00,,,0.00,Wunderground v.1.15,2013-07-10 19:35:00,
2013-07-10 15:40:00,77.5,65.2,29.92,WNW,293,8.0,9.0,66,0.00,,,0.00,Wunderground v.1.15,2013-07-10 19:40:00,
2013-07-10 15:45:00,77.8,65.5,29.92,West,277,9.0,10.0,66,0.00,,,0.00,Wunderground v.1.15,2013-07-10 19:45:00,
2013-07-10 15:50:00,78.0,66.2,29.91,NW,307,8.0,8.0,67,0.00,,,0.00,Wunderground v.1.15,2013-07-10 19:50:00,
2013-07-10 15:55:00,77.4,64.7,29.91,WNW,297,7.0,8.0,65,0.00,,,0.00,Wunderground v.1.15,2013-07-10 19:55:00,
2013-07-10 16:00:00,76.7,63.6,29.91,WNW,294,7.0,7.0,64,0.00,,,0.00,Wunderground v.1.15,2013-07-10 20:00:00,
2013-07-10 16:10:00,76.7,64.0,29.91,NNW,333,8.0,8.0,65,0.00,,,0.00,Wunderground v.1.15,2013-07-10 20:10:00,
2013-07-10 16:15:00,77.0,65.2,29.90,NNW,333,7.0,8.0,67,0.00,,,0.00,Wunderground v.1.15,2013-07-10 20:15:00,
2013-07-10 16:20:00,77.1,65.3,29.89,WNW,302,7.0,7.0,67,0.00,,,0.00,Wunderground v.1.15,2013-07-10 20:20:00,
2013-07-10 16:25:00,77.2,65.8,29.89,WNW,301,7.0,10.0,68,0.00,,,0.00,Wunderground v.1.15,2013-07-10 20:25:00,
2013-07-10 16:30:00,77.1,64.9,29.89,WNW,301,8.0,10.0,66,0.00,,,0.00,Wunderground v.1.15,2013-07-10 20:30:00,
2013-07-10 16:40:00,77.0,63.4,29.88,NW,317,7.0,7.0,63,0.00,,,0.00,Wunderground v.1.15,2013-07-10 20:40:00,
2013-07-10 16:45:00,77.0,65.2,29.88,NW,325,7.0,9.0,67,0.00,,,0.00,Wunderground v.1.15,2013-07-10 20:45:00,
2013-07-10 16:50:00,77.2,65.4,29.88,West,262,7.0,9.0,67,0.00,,,0.00,Wunderground v.1.15,2013-07-10 20:50:00,
2013-07-10 16:55:00,77.2,64.5,29.88,NNE,12,7.0,11.0,65,0.00,,,0.00,Wunderground v.1.15,2013-07-10 20:55:00,
2013-07-10 17:00:00,77.1,65.3,29.87,WNW,295,6.0,9.0,67,0.00,,,0.00,Wunderground v.1.15,2013-07-10 21:00:00,
2013-07-10 17:10:00,77.0,64.8,29.86,North,351,6.0,6.0,66,0.00,,,0.00,Wunderground v.1.15,2013-07-10 21:10:00,
2013-07-10 17:15:00,77.1,64.9,29.87,North,358,5.0,6.0,66,0.00,,,0.00,Wunderground v.1.15,2013-07-10 21:15:00,
2013-07-10 17:20:00,76.7,64.5,29.86,North,359,6.0,12.0,66,0.00,,,0.00,Wunderground v.1.15,2013-07-10 21:20:00,
2013-07-10 17:25:00,76.2,63.6,29.86,NW,305,7.0,12.0,65,0.00,,,0.00,Wunderground v.1.15,2013-07-10 21:25:00,
2013-07-10 17:30:00,75.9,63.3,29.87,WNW,284,8.0,13.0,65,0.00,,,0.00,Wunderground v.1.15,2013-07-10 21:30:00,
2013-07-10 17:35:00,75.9,61.5,29.87,NW,319,8.0,13.0,61,0.00,,,0.00,Wunderground v.1.15,2013-07-10 21:35:00,
2013-07-10 17:45:00,76.0,62.5,29.88,NW,311,7.0,8.0,63,0.00,,,0.00,Wunderground v.1.15,2013-07-10 21:45:00,
2013-07-10 17:50:00,75.9,62.4,29.88,WNW,294,7.0,7.0,63,0.00,,,0.00,Wunderground v.1.15,2013-07-10 21:50:00,
2013-07-10 17:55:00,75.8,62.3,29.88,NNE,31,7.0,7.0,63,0.00,,,0.00,Wunderground v.1.15,2013-07-10 21:55:00,
2013-07-10 18:00:00,75.8,62.3,29.88,NW,321,6.0,6.0,63,0.00,,,0.00,Wunderground v.1.15,2013-07-10 22:00:00,
2013-07-10 18:10:00,75.5,60.6,29.88,NW,308,7.0,9.0,60,0.00,,,0.00,Wunderground v.1.15,2013-07-10 22:10:00,
2013-07-10 18:20:00,75.2,60.8,29.88,NW,311,6.0,6.0,61,0.00,,,0.00,Wunderground v.1.15,2013-07-10 22:20:00,
2013-07-10 18:25:00,75.3,58.5,29.88,WNW,289,6.0,6.0,56,0.00,,,0.00,Wunderground v.1.15,2013-07-10 22:25:00,
2013-07-10 18:30:00,75.0,57.7,29.89,WNW,288,6.0,6.0,55,0.00,,,0.00,Wunderground v.1.15,2013-07-10 22:30:00,
2013-07-10 18:35:00,74.5,58.3,29.89,West,266,6.0,7.0,57,0.00,,,0.00,Wunderground v.1.15,2013-07-10 22:35:00,
2013-07-10 18:40:00,74.6,59.8,29.89,NNE,14,5.0,5.0,60,0.00,,,0.00,Wunderground v.1.15,2013-07-10 22:40:00,
2013-07-10 18:50:00,74.2,57.0,29.89,North,360,8.0,10.0,55,0.00,,,0.00,Wunderground v.1.15,2013-07-10 22:50:00,
2013-07-10 18:55:00,73.9,57.7,29.89,NNE,27,8.0,10.0,57,0.00,,,0.00,Wunderground v.1.15,2013-07-10 22:55:00,
2013-07-10 19:00:00,73.7,56.5,29.89,NNW,333,7.0,8.0,55,0.00,,,0.00,Wunderground v.1.15,2013-07-10 23:00:00,
2013-07-10 19:10:00,73.2,56.6,29.89,NW,311,8.0,8.0,56,0.00,,,0.00,Wunderground v.1.15,2013-07-10 23:10:00,
2013-07-10 19:15:00,73.0,57.3,29.89,NNW,330,7.0,8.0,58,0.00,,,0.00,Wunderground v.1.15,2013-07-10 23:15:00,
2013-07-10 19:20:00,73.0,58.3,29.90,NNW,340,6.0,6.0,60,0.00,,,0.00,Wunderground v.1.15,2013-07-10 23:20:00,
2013-07-10 19:25:00,73.1,57.9,29.90,NW,304,5.0,9.0,59,0.00,,,0.00,Wunderground v.1.15,2013-07-10 23:25:00,
2013-07-10 19:30:00,72.9,57.3,29.90,North,357,6.0,9.0,58,0.00,,,0.00,Wunderground v.1.15,2013-07-10 23:30:00,
2013-07-10 19:40:00,72.7,57.1,29.90,North,6,5.0,6.0,58,0.00,,,0.00,Wunderground v.1.15,2013-07-10 23:40:00,
2013-07-10 19:45:00,72.6,57.0,29.90,NNE,23,6.0,9.0,58,0.00,,,0.00,Wunderground v.1.15,2013-07-10 23:45:00,
2013-07-10 19:50:00,72.4,57.3,29.90,NNE,25,6.0,6.0,59,0.00,,,0.00,Wunderground v.1.15,2013-07-10 23:50:00,
2013-07-10 19:55:00,72.3,57.2,29.90,NNW,330,5.0,6.0,59,0.00,,,0.00,Wunderground v.1.15,2013-07-10 23:55:00,
2013-07-10 20:00:00,72.2,56.6,29.90,WNW,302,5.0,12.0,58,0.00,,,0.00,Wunderground v.1.15,2013-07-11 00:00:00,
2013-07-10 20:10:00,71.8,57.2,29.91,NNE,20,7.0,7.0,60,0.00,,,0.00,Wunderground v.1.15,2013-07-11 00:10:00,
2013-07-10 20:15:00,71.6,56.5,29.91,NNW,347,6.0,7.0,59,0.00,,,0.00,Wunderground v.1.15,2013-07-11 00:15:00,
2013-07-10 20:25:00,71.2,56.6,29.92,North,355,5.0,6.0,60,0.00,,,0.00,Wunderground v.1.15,2013-07-11 00:25:00,
2013-07-10 20:30:00,71.0,56.9,29.92,NNW,330,5.0,5.0,61,0.00,,,0.00,Wunderground v.1.15,2013-07-11 00:30:00,
2013-07-10 20:35:00,70.8,56.7,29.92,NNW,333,5.0,6.0,61,0.00,,,0.00,Wunderground v.1.15,2013-07-11 00:35:00,
2013-07-10 20:40:00,70.6,56.9,29.93,WNW,302,4.0,4.0,62,0.00,,,0.00,Wunderground v.1.15,2013-07-11 00:40:00,
2013-07-10 20:45:00,70.3,57.1,29.93,North,353,4.0,5.0,63,0.00,,,0.00,Wunderground v.1.15,2013-07-11 00:45:00,
2013-07-10 20:50:00,69.7,57.0,29.93,NW,324,4.0,4.0,64,0.00,,,0.00,Wunderground v.1.15,2013-07-11 00:50:00,
2013-07-10 21:00:00,68.9,57.1,29.93,NW,311,4.0,5.0,66,0.00,,,0.00,Wunderground v.1.15,2013-07-11 01:00:00,
2013-07-10 21:10:00,68.3,56.9,29.94,NW,319,2.0,2.0,67,0.00,,,0.00,Wunderground v.1.15,2013-07-11 01:10:00,
2013-07-10 21:20:00,67.4,57.3,29.94,WNW,293,1.0,1.0,70,0.00,,,0.00,Wunderground v.1.15,2013-07-11 01:20:00,
2013-07-10 21:30:00,66.6,57.7,29.95,NNW,340,0.0,1.0,73,0.00,,,0.00,Wunderground v.1.15,2013-07-11 01:30:00,
2013-07-10 21:35:00,66.3,57.4,29.95,NW,311,1.0,1.0,73,0.00,,,0.00,Wunderground v.1.15,2013-07-11 01:35:00,
2013-07-10 21:40:00,66.0,57.5,29.95,North,356,0.0,1.0,74,0.00,,,0.00,Wunderground v.1.15,2013-07-11 01:40:00,
2013-07-10 21:45:00,65.8,57.7,29.96,NNW,337,0.0,1.0,75,0.00,,,0.00,Wunderground v.1.15,2013-07-11 01:45:00,
2013-07-10 21:50:00,65.4,57.6,29.96,North,355,0.0,1.0,76,0.00,,,0.00,Wunderground v.1.15,2013-07-11 01:50:00,
2013-07-10 21:55:00,65.2,57.4,29.96,North,358,0.0,1.0,76,0.00,,,0.00,Wunderground v.1.15,2013-07-11 01:55:00,
2013-07-10 22:00:00,65.1,57.3,29.96,NNW,345,0.0,0.0,76,0.00,,,0.00,Wunderground v.1.15,2013-07-11 02:00:00,
2013-07-10 22:10:00,65.1,57.3,29.96,NNE,15,1.0,2.0,76,0.00,,,0.00,Wunderground v.1.15,2013-07-11 02:10:00,
2013-07-10 22:15:00,65.1,57.3,29.96,North,1,2.0,2.0,76,0.00,,,0.00,Wunderground v.1.15,2013-07-11 02:15:00,
2013-07-10 22:20:00,65.0,57.2,29.96,NNW,343,2.0,2.0,76,0.00,,,0.00,Wunderground v.1.15,2013-07-11 02:20:00,
2013-07-10 22:25:00,65.0,57.2,29.96,North,6,2.0,3.0,76,0.00,,,0.00,Wunderground v.1.15,2013-07-11 02:25:00,
2013-07-10 22:35:00,64.8,57.1,29.97,North,4,2.0,2.0,76,0.00,,,0.00,Wunderground v.1.15,2013-07-11 02:35:00,
2013-07-10 22:40:00,64.6,57.2,29.97,NNW,342,1.0,1.0,77,0.00,,,0.00,Wunderground v.1.15,2013-07-11 02:40:00,
2013-07-10 22:45:00,64.1,57.1,29.97,North,9,1.0,2.0,78,0.00,,,0.00,Wunderground v.1.15,2013-07-11 02:45:00,
2013-07-10 22:50:00,63.9,57.3,29.97,NNW,327,1.0,1.0,79,0.00,,,0.00,Wunderground v.1.15,2013-07-11 02:50:00,
2013-07-10 22:55:00,63.7,57.1,29.98,NNW,328,1.0,1.0,79,0.00,,,0.00,Wunderground v.1.15,2013-07-11 02:55:00,
2013-07-10 23:00:00,63.6,57.3,29.98,NNE,14,1.0,2.0,80,0.00,,,0.00,Wunderground v.1.15,2013-07-11 03:00:00,
2013-07-10 23:10:00,63.4,57.1,29.98,NNW,338,1.0,1.0,80,0.00,,,0.00,Wunderground v.1.15,2013-07-11 03:10:00,
2013-07-10 23:15:00,63.3,57.0,29.99,NNW,328,1.0,1.0,80,0.00,,,0.00,Wunderground v.1.15,2013-07-11 03:15:00,
2013-07-10 23:20:00,63.2,56.9,29.99,NNW,329,1.0,1.0,80,0.00,,,0.00,Wunderground v.1.15,2013-07-11 03:20:00,
2013-07-10 23:25:00,63.1,56.8,29.98,North,355,1.0,1.0,80,0.00,,,0.00,Wunderground v.1.15,2013-07-11 03:25:00,
2013-07-10 23:30:00,63.0,57.1,29.99,NNW,348,1.0,2.0,81,0.00,,,0.00,Wunderground v.1.15,2013-07-11 03:30:00,
2013-07-10 23:35:00,63.1,56.8,29.99,NW,307,2.0,2.0,80,0.00,,,0.00,Wunderground v.1.15,2013-07-11 03:35:00,
2013-07-10 23:40:00,63.0,56.7,29.99,NNW,345,2.0,2.0,80,0.00,,,0.00,Wunderground v.1.15,2013-07-11 03:40:00,
2013-07-10 23:45:00,63.0,57.1,29.99,NNW,332,1.0,2.0,81,0.00,,,0.00,Wunderground v.1.15,2013-07-11 03:45:00,
2013-07-10 23:50:00,62.8,56.9,29.99,NW,319,1.0,1.0,81,0.00,,,0.00,Wunderground v.1.15,2013-07-11 03:50:00,
2013-07-10 23:55:00,62.6,56.7,30.00,NW,325,1.0,1.0,81,0.00,,,0.00,Wunderground v.1.15,2013-07-11 03:55:00,